Tracking 19477 objects as of 16-Jan-2019
HD Live streaming from Space Station
objects crossing your sky now

COSMOS 2155

Track COSMOS 2155 now!
COSMOS 2155 is classified as:


NORAD ID: 21702
Int'l Code: 1991-064A
Perigee: 35,762.0 km
Apogee: 35,813.2 km
Inclination: 15.0 °
Period: 1,435.8 minutes
Semi major axis: 42158 km
RCS: 5.0119 m2 (large)
Launch date: September 13, 1991
Source: Commonwealth of Independent States (former USSR) (CIS)
Launch site: TYURATAM MISSILE AND SPACE COMPLEX (TTMTR)
aabbcc
Your satellite tracking list
Your tracking list is empty




NASA's NSSDC Master Catalog

Two Line Element Set (TLE):
1 21702U 91064A   19015.72103444 +.00000015 +00000-0 +00000-0 0  9999
2 21702 015.0147 001.8322 0006068 313.6358 235.8776 01.00293723100160
Source of the keplerian elements: AFSPC